Theta_e
297 297 298 299 299 300 300 300 301 301 301 301 301 301 303 303 303 299 295 298 295 288 289 289 291 286 285 285 282 280 280 278 278 276 274 272 270 270 267 270 269 269 267 266 268 262 265 278 275 274 278 276 278 277
295 296 297 298 298 299 300 300 300 300 300 300 300 300 301 302 302 302 292 296 297 290 287 289 292 290 292 291 286 283 284 278 281 277 276 276 271 267 266 266 272 267 274 270 272 272 279 278 278 279 279 278 277 278
294 295 295 297 297 297 297 298 299 299 297 299 299 299 301 300 302 301 295 294 292 285 286 286 287 289 288 289 290 283 283 285 283 284 284 280 272 273 267 268 270 270 274 271 270 276 277 278 279 279 280 279 279 279
293 293 294 294 295 296 296 296 296 298 298 297 299 299 299 300 301 301 294 294 293 287 284 285 288 285 287 287 286 286 285 283 282 283 280 276 270 277 273 273 272 273 273 272 273 276 277 278 279 278 278 279 276 275
292 292 293 293 293 294 294 295 295 295 297 297 298 299 299 298 299 299 297 295 295 290 284 284 284 284 285 286 284 284 284 282 281 278 278 274 276 276 272 267 268 273 276 274 276 283 280 281 276 276 275 276 277 275
291 291 292 292 292 293 293 293 294 294 297 296 294 298 298 298 298 295 286 295 296 294 284 280 282 281 283 285 283 283 283 282 283 282 281 282 271 277 274 269 280 281 281 282 280 283 281 278 274 274 275 273 274 275
291 291 291 291 292 292 293 293 293 294 294 296 296 295 297 297 295 288 285 291 297 294 284 281 277 279 283 282 282 280 282 281 282 280 279 276 272 275 270 270 283 283 284 282 282 278 276 272 277 273 273 272 273 270
290 290 291 291 291 291 292 292 293 293 294 295 296 295 296 297 295 289 293 297 297 287 285 281 273 275 281 277 275 281 278 279 279 279 275 272 270 270 270 277 282 279 282 280 280 278 281 270 270 268 267 267 267 271
290 290 290 290 291 291 291 292 292 293 294 295 295 295 293 289 285 285 297 298 291 287 282 283 272 273 278 278 277 277 280 273 273 272 273 273 269 268 273 276 279 280 279 278 270 267 269 269 269 265 265 265 269 272
290 290 290 290 291 291 291 291 292 292 293 293 291 285 282 285 294 295 286 284 284 284 282 280 277 271 275 274 276 274 276 274 268 270 268 266 269 277 280 280 281 283 281 274 268 268 262 264 268 269 269 270 273 274
289 289 290 290 290 290 291 291 292 292 292 286 283 282 286 295 286 284 280 279 280 278 281 278 276 273 277 273 270 273 270 271 265 266 264 265 267 273 278 280 282 281 279 278 278 278 273 271 271 271 270 270 270 270
289 289 290 290 290 290 291 291 292 288 285 286 286 287 285 284 282 278 276 278 277 273 274 274 275 275 274 275 270 267 268 266 264 261 260 261 271 277 275 276 276 275 271 270 269 273 271 273 272 271 270 270 271 272
289 289 290 290 291 291 291 291 291 289 291 286 284 282 280 279 274 273 271 268 271 274 272 275 274 272 268 273 268 265 262 263 260 258 261 267 274 275 274 273 272 269 264 263 264 264 266 268 266 269 270 265 269 270
289 289 290 291 291 291 291 291 292 291 285 281 278 274 274 273 276 275 273 275 273 273 274 275 271 274 270 270 269 265 261 262 257 257 263 270 275 278 273 267 267 267 262 262 262 261 263 264 267 265 265 267 268 269
289 290 291 290 290 290 290 292 292 285 282 277 278 272 274 273 269 263 265 269 269 278 277 271 270 273 271 268 267 260 255 257 261 265 270 276 276 269 267 265 265 264 261 259 257 257 259 259 261 263 261 263 268 265
289 289 287 290 290 290 291 290 286 285 283 278 277 273 272 273 268 265 267 267 272 279 275 275 272 271 269 266 259 262 262 262 268 271 275 272 272 265 264 264 262 261 258 257 256 255 255 256 259 262 258 260 260 266
289 285 289 290 290 290 290 285 284 279 277 276 272 270 273 271 269 267 268 268 272 278 272 276 270 269 263 260 260 266 265 271 277 276 273 273 270 267 263 261 260 260 258 256 254 252 252 254 255 256 259 257 257 258
284 287 289 289 288 287 283 281 275 278 274 270 268 267 267 268 271 270 267 271 274 270 270 273 271 263 263 263 264 272 274 277 275 274 271 266 263 261 260 261 259 258 258 256 252 251 250 252 255 257 259 259 259 255
286 287 289 290 287 282 279 277 278 273 266 267 266 267 273 267 269 277 271 270 268 269 274 265 264 265 267 270 272 272 274 272 274 271 266 261 259 258 257 258 257 257 258 257 255 254 253 254 255 257 259 261 260 260
290 291 290 291 287 279 275 274 276 272 271 268 267 267 271 272 271 275 275 272 275 274 274 270 264 269 271 270 267 268 268 266 267 268 267 263 258 256 257 257 258 256 257 257 257 253 254 254 254 256 257 259 262 261
285 286 287 283 277 276 274 272 269 270 270 269 268 268 269 268 272 274 275 275 272 273 266 270 269 271 262 262 261 262 262 261 264 265 265 264 258 258 257 256 255 255 256 257 257 257 255 253 253 254 257 258 259 258
281 285 279 280 273 273 271 270 270 269 268 267 268 268 266 265 266 272 267 268 269 268 272 272 270 267 264 263 263 261 260 258 256 257 259 260 261 260 260 258 257 258 256 255 256 256 253 252 253 256 257 255 256 256
282 278 272 271 268 267 264 267 265 265 262 262 263 262 261 261 262 268 265 266 268 269 269 266 260 257 260 256 256 260 260 261 262 261 260 259 258 259 258 257 256 257 257 256 256 254 254 256 256 257 256 256 257 257
279 267 263 261 262 260 260 260 263 264 263 260 259 258 260 260 263 264 266 263 268 258 259 259 258 259 259 257 258 261 262 263 263 261 261 265 268 262 260 260 256 255 255 256 257 257 257 256 258 258 258 258 256 257
266 263 262 259 260 260 259 259 259 260 257 259 259 260 260 262 260 261 260 264 260 260 261 259 259 261 267 262 261 261 259 262 268 269 267 267 265 261 262 264 260 260 259 260 257 257 257 257 260 261 261 260 259 259
260 258 260 258 258 259 261 260 262 266 265 264 265 264 265 265 261 261 264 261 256 254 255 261 263 263 261 261 263 263 261 263 264 267 266 266 264 267 271 268 267 264 263 262 263 262 261 262 262 262 262 262 262 261
259 259 257 259 261 260 260 262 264 266 267 267 268 265 265 265 261 263 252 250 249 250 251 250 250 254 255 257 258 258 259 262 262 263 265 264 265 265 266 269 270 265 265 266 265 264 263 262 262 262 261 261 261 261
258 259 262 259 259 260 259 260 262 263 263 263 268 265 266 267 269 260 252 251 250 251 253 256 253 251 252 254 256 258 259 258 260 263 263 262 263 265 265 263 265 267 265 265 264 264 264 263 262 261 261 261 260 261
255 254 256 256 259 260 259 260 261 259 259 260 263 267 265 259 256 256 255 254 252 252 252 252 251 252 252 253 253 256 259 262 265 266 266 266 265 264 263 263 264 265 265 266 268 265 264 263 262 261 261 261 261 261
253 252 254 254 261 262 259 257 259 258 258 259 258 258 257 257 256 255 254 250 251 251 251 251 251 252 252 253 254 256 257 259 261 262 265 265 264 263 264 264 265 266 266 266 266 266 267 264 264 262 261 260 259 258
249 251 255 260 259 258 256 254 253 254 256 254 256 255 256 255 251 250 254 251 252 252 252 251 251 251 253 255 257 258 259 260 260 260 262 263 264 264 265 266 266 267 265 264 263 262 262 261 260 259 258 258 257 257
252 254 258 257 259 256 256 256 258 258 258 257 258 257 256 256 252 250 252 252 251 253 255 253 251 252 252 253 255 256 259 260 261 262 263 263 263 264 265 265 265 264 264 263 262 262 261 260 259 258 257 256 255 254
253 255 257 259 260 260 258 257 259 260 260 260 260 259 258 258 255 252 253 252 252 254 253 253 254 255 256 258 260 261 262 262 264 266 266 265 265 265 264 264 264 264 263 262 261 261 260 259 258 257 256 255 254 253
Wind_Speed
29 30 31 30 31 31 29 27 28 26 23 23 23 22 24 21 21 11 4 6 4 4 5 4 6 6 2 4 6 5 4 3 3 5 4 5 4 6 1 5 8 10 10 7 5 4 14 8 4 8 6 0 2 4
29 31 31 32 28 27 30 29 26 27 28 25 24 23 21 23 21 20 6 3 3 3 2 0 2 2 3 8 6 8 2 5 6 4 3 2 2 2 4 5 1 4 10 8 14 13 3 8 6 7 1 3 5 6
29 30 30 28 28 27 24 25 30 28 22 28 26 26 24 22 21 21 5 5 2 2 3 2 5 6 2 4 3 7 2 4 4 1 2 2 6 5 5 8 6 6 5 5 3 11 20 15 11 8 7 8 5 6
27 29 28 30 30 29 27 25 24 30 28 23 28 26 24 22 22 22 6 5 4 0 5 4 1 3 3 4 2 3 6 7 4 2 2 2 3 3 4 3 4 5 8 7 7 20 12 17 15 12 11 9 6 5
27 29 31 30 30 31 32 30 27 25 28 21 24 28 25 23 21 15 8 7 8 7 2 2 2 3 3 5 7 7 10 7 3 4 4 5 3 2 2 3 6 9 13 8 15 20 12 13 5 6 9 11 13 10
29 27 28 28 29 28 29 29 31 26 31 21 19 21 26 20 19 7 5 9 11 7 2 4 2 2 3 6 8 9 6 2 3 3 3 4 1 2 4 6 13 15 19 19 23 17 13 9 5 4 8 9 10 11
28 28 26 27 26 27 27 27 27 29 30 26 18 20 25 19 10 6 4 4 21 8 4 2 3 2 4 5 2 2 1 2 2 3 4 2 2 4 4 9 34 9 13 14 19 7 10 6 10 9 7 5 7 4
28 27 27 26 26 26 26 25 23 26 30 29 25 22 24 21 14 6 3 9 16 5 3 5 3 4 4 4 3 1 3 2 3 1 1 2 1 2 11 20 21 8 13 12 14 14 20 2 4 4 4 5 5 8
27 27 27 25 25 25 24 24 21 24 27 25 20 21 13 7 4 3 12 15 3 4 5 4 8 6 4 2 3 2 2 3 1 3 4 4 4 13 13 16 18 10 10 9 3 3 3 7 6 5 5 4 7 10
27 25 22 24 25 24 22 23 22 18 14 13 11 5 5 7 16 20 4 5 3 3 2 2 4 5 4 3 3 4 2 3 3 6 3 4 9 13 13 19 19 18 12 7 3 7 2 6 11 11 12 9 12 11
21 20 20 22 22 21 20 20 20 18 13 3 6 4 2 22 5 4 6 6 6 6 6 3 5 7 2 4 4 2 4 3 3 4 5 5 8 7 15 17 15 13 10 11 14 13 9 7 7 11 10 12 9 8
16 16 17 21 20 20 19 19 18 7 6 14 3 5 4 5 5 6 8 5 6 8 3 6 5 5 2 1 5 2 5 2 7 3 2 7 7 14 8 9 8 6 4 7 6 11 7 8 7 8 7 10 12 11
17 19 20 22 22 21 20 17 14 11 12 6 5 6 7 5 6 8 8 3 6 5 5 6 5 4 2 1 4 4 5 7 2 1 8 8 8 11 7 6 5 4 3 3 5 3 4 5 4 7 8 5 8 8
20 23 26 24 20 18 16 14 14 15 4 3 4 8 5 4 3 3 7 9 4 8 9 8 5 4 3 4 4 6 1 3 1 4 9 6 11 9 5 1 2 2 2 4 6 5 7 7 7 6 5 7 8 9
23 25 21 14 13 13 10 13 12 2 2 1 3 3 3 3 4 1 2 4 2 10 12 5 3 3 3 4 1 6 4 7 9 8 7 7 7 3 2 3 4 4 4 4 3 4 6 5 5 6 5 5 7 6
22 17 6 13 14 13 14 8 3 3 1 2 2 2 2 2 1 2 3 3 1 9 3 4 5 4 5 6 5 11 8 9 7 7 6 1 2 3 3 3 3 3 3 3 4 3 5 5 5 6 3 5 5 7
15 3 7 12 15 15 12 3 2 2 0 3 2 2 1 3 4 2 3 2 2 7 3 4 6 9 3 3 4 6 7 6 5 4 2 3 3 2 3 2 3 4 4 3 2 4 4 5 3 3 4 5 4 3
4 4 8 10 12 6 3 3 2 3 5 2 3 4 1 2 4 4 2 3 4 2 3 4 5 3 7 7 5 6 7 6 3 3 2 1 1 1 1 3 2 2 3 3 3 4 2 3 2 4 5 4 6 4
4 7 12 17 8 5 3 2 1 2 2 2 2 2 4 2 2 4 4 2 3 1 3 3 3 5 5 5 4 3 2 1 3 3 2 1 3 2 2 2 3 2 1 2 2 2 3 3 3 3 3 5 4 4
13 19 16 24 10 3 4 2 2 1 2 2 3 2 2 3 2 3 5 1 3 2 2 4 5 4 2 3 1 1 2 2 0 4 4 1 1 2 1 0 1 3 3 1 2 1 2 3 3 2 2 3 5 5
8 7 10 7 3 4 3 1 1 1 3 2 1 2 4 1 3 3 3 1 0 4 4 4 4 4 4 3 2 1 3 1 2 3 3 3 2 1 0 1 0 1 1 2 2 2 4 2 2 2 4 4 5 5
1 3 3 4 4 3 4 1 1 1 3 0 2 2 4 3 3 4 3 2 5 5 5 5 4 3 2 1 0 1 2 2 2 2 2 0 2 2 2 2 2 2 2 2 2 2 2 2 2 4 5 4 5 5
4 4 4 4 6 6 2 2 4 3 3 3 3 3 0 1 4 1 3 5 5 4 3 3 3 2 3 2 1 2 2 2 1 2 1 1 2 2 2 2 1 2 1 2 2 2 2 2 4 6 5 5 6 7
9 6 5 3 4 2 1 1 1 2 2 1 4 2 2 3 1 1 5 4 5 1 2 5 3 3 3 2 2 3 3 3 3 0 2 2 2 2 2 1 1 2 1 2 2 3 3 3 4 5 6 8 6 8
7 6 5 4 3 5 2 1 2 2 3 4 2 3 3 3 3 5 6 6 3 4 4 5 2 3 5 2 0 2 2 3 3 2 1 2 1 2 3 1 2 2 1 3 2 3 3 3 4 6 6 7 10 10
4 4 3 4 2 4 3 1 1 1 2 4 6 2 2 3 3 8 6 4 3 1 2 6 7 5 4 3 3 2 3 3 2 3 1 2 2 2 2 3 2 2 2 1 5 5 5 4 6 8 8 9 11 11
1 3 2 1 2 2 2 1 1 1 4 5 3 5 4 7 10 7 0 1 1 1 2 2 2 3 1 2 3 2 1 1 2 3 3 1 2 3 2 0 1 3 4 3 4 4 6 6 7 8 9 7 7 8
4 3 5 3 1 2 2 2 4 7 5 1 1 7 6 7 3 1 2 1 2 1 2 1 1 1 1 2 2 2 1 1 3 3 2 1 2 2 2 2 2 7 5 4 5 5 6 7 8 8 9 9 8 7
1 1 4 1 2 2 5 6 5 2 1 2 3 4 2 2 0 1 1 1 1 1 2 0 2 1 1 1 1 1 1 2 5 5 4 2 2 1 2 1 3 4 5 7 10 8 9 9 9 10 10 9 8 8
3 1 2 2 4 6 5 4 1 1 1 1 2 3 2 2 1 1 1 1 0 2 2 2 2 2 2 3 2 0 1 1 1 1 2 2 2 4 4 4 5 6 6 8 10 12 15 13 13 9 10 9 8 8
2 2 3 4 5 3 2 1 1 2 2 3 3 2 3 2 2 1 1 2 1 1 1 0 0 1 2 1 2 3 1 0 1 1 1 2 4 4 4 5 6 6 8 9 8 9 10 9 9 10 11 11 10 9
1 4 2 4 3 2 2 2 2 3 4 4 4 3 1 1 3 2 1 2 0 1 3 2 3 2 2 1 1 1 2 2 2 2 5 4 4 4 5 6 7 7 8 9 9 9 11 11 10 10 10 11 11 11
1 1 3 4 4 3 1 1 3 3 3 3 3 2 1 1 3 2 1 2 2 1 2 2 2 2 2 2 3 3 3 3 5 8 9 8 7 7 6 5 7 8 10 10 9 11 12 15 12 12 12 12 12 11
Wind_Direction
289 285 280 277 273 268 265 264 258 249 241 248 250 254 243 234 231 213 218 195 223 210 216 189 187 139 100 173 163 133 122 210 171 199 192 222 206 215 136 170 181 174 165 194 182 205 274 148 71 176 216 255 213 209
284 285 287 276 278 280 269 263 259 258 247 242 243 247 246 242 235 213 212 164 183 225 272 233 244 328 206 175 127 176 241 149 175 167 196 266 273 135 192 248 323 253 196 185 192 209 217 209 221 221 225 213 211 201
282 287 284 287 276 264 264 286 269 252 256 249 243 242 241 243 239 215 194 157 142 155 266 191 193 197 127 230 135 144 225 174 220 143 156 189 235 127 191 235 195 254 172 230 79 245 239 235 248 246 222 223 219 214
284 283 285 278 277 275 269 261 270 271 239 236 248 242 237 232 240 213 203 173 160 300 223 207 92 164 116 153 139 111 127 87 93 39 183 208 200 165 237 226 199 192 138 208 265 267 289 272 243 229 225 208 192 209
286 287 285 283 277 267 267 265 265 267 261 244 236 242 239 234 234 228 209 186 190 188 244 129 118 132 127 147 125 118 132 118 145 157 199 221 234 129 228 33 234 181 220 211 248 257 227 250 230 193 196 212 208 176
289 288 286 285 277 273 271 270 261 250 262 234 230 254 234 227 223 210 219 197 187 165 276 203 76 150 129 135 140 146 150 135 171 183 188 222 33 160 255 252 236 207 225 232 248 261 253 253 197 177 197 219 196 189
283 281 278 280 276 273 268 266 265 257 240 246 226 234 232 223 211 223 204 175 169 136 172 191 202 158 141 114 109 106 146 164 179 186 219 222 193 183 242 246 261 196 224 226 237 252 273 199 239 206 189 188 174 181
283 279 276 281 280 278 270 270 262 261 242 233 229 223 236 237 208 209 237 167 150 117 138 235 99 153 204 145 129 155 143 168 190 245 116 194 90 216 252 240 266 249 249 239 232 211 238 173 124 153 143 128 150 187
285 282 274 276 278 274 269 268 253 264 237 218 218 224 229 208 178 203 162 148 91 147 188 201 151 175 181 101 107 153 184 176 73 222 219 128 214 227 236 249 261 239 208 226 240 305 209 205 192 182 157 174 178 207
278 271 277 279 275 268 268 266 260 250 224 218 218 199 193 186 145 157 100 153 160 184 201 220 89 141 152 157 147 126 186 212 199 225 98 206 251 269 254 251 257 260 241 174 175 263 217 249 211 199 202 192 205 206
278 274 274 280 274 269 261 257 253 242 213 185 190 212 91 159 151 191 157 175 155 184 179 172 127 135 243 138 145 186 174 167 222 239 158 247 263 248 232 244 250 255 246 228 228 243 197 184 181 200 206 209 201 187
276 275 289 289 275 271 261 257 248 209 219 195 143 116 117 209 183 177 165 159 173 192 119 138 150 128 160 171 106 245 163 84 240 159 96 260 251 250 260 254 264 235 230 259 230 229 225 203 193 192 190 198 199 197
286 286 284 290 280 263 262 258 245 199 112 87 234 156 196 185 177 182 147 170 166 134 151 150 108 119 94 134 80 114 127 221 56 121 229 232 257 273 265 246 265 255 227 257 284 287 239 236 213 182 207 209 175 183
296 289 295 284 271 246 248 264 235 150 106 234 170 194 200 141 151 182 188 181 131 123 142 136 116 139 150 116 144 133 204 73 252 246 236 242 240 259 253 231 148 275 276 260 271 273 256 228 233 219 210 171 168 184
288 295 283 259 240 229 237 249 161 75 103 185 209 229 129 110 48 66 323 79 100 144 137 106 79 124 127 115 133 100 52 241 208 230 222 232 239 211 262 241 226 243 261 263 247 282 277 255 226 237 216 194 184 150
291 290 265 238 224 220 219 212 78 81 325 132 293 122 117 92 77 81 7 77 223 142 99 89 130 156 193 138 121 215 153 213 238 220 237 12 269 258 253 253 268 262 232 249 276 248 270 261 231 232 186 190 184 165
278 225 231 226 214 211 202 78 46 114 117 301 132 299 93 74 121 112 122 142 265 138 132 130 168 199 101 123 230 187 205 222 231 260 246 212 209 225 214 241 270 269 279 292 284 284 263 270 269 134 173 223 187 188
211 206 172 242 190 133 45 46 63 270 174 209 130 181 99 73 119 115 116 153 133 218 93 174 123 157 186 169 244 231 224 247 231 229 225 210 164 186 185 255 271 273 285 286 269 280 280 319 227 221 204 162 125 115
213 190 197 187 125 104 117 124 245 207 129 292 8 36 80 106 336 112 114 124 71 107 100 60 178 199 213 221 227 277 321 186 265 290 258 164 134 168 258 255 259 256 299 315 324 280 279 248 225 256 181 143 147 160
20 178 188 152 111 115 132 96 23 161 202 202 66 82 116 104 140 118 124 122 121 134 183 213 226 231 209 300 338 284 246 263 55 327 293 267 149 131 224 186 3 325 318 273 248 276 330 347 352 341 114 140 134 163
12 48 64 75 77 61 68 68 80 203 129 125 172 102 64 36 125 162 147 111 290 199 201 217 233 257 170 204 221 252 281 32 241 176 247 297 271 155 185 39 13 324 350 339 14 359 51 46 287 1 67 65 76 78
80 63 74 35 90 86 82 309 107 103 60 30 79 103 121 146 166 200 114 178 228 217 197 185 209 204 297 142 140 154 276 321 316 287 257 156 39 16 14 10 8 357 25 15 16 80 73 317 5 77 78 67 69 74
61 49 43 38 70 49 285 1 65 353 113 214 40 66 261 183 206 93 195 220 233 224 191 174 170 130 150 155 23 245 219 230 342 289 240 106 111 86 78 29 21 40 59 356 354 74 84 27 64 87 89 79 89 86
33 52 58 63 71 166 42 52 83 120 91 101 129 169 248 190 112 116 245 235 228 79 156 195 143 88 18 16 216 212 194 180 126 304 270 271 197 110 96 81 73 77 107 126 71 68 60 54 67 85 93 95 84 94
73 325 77 360 350 65 96 198 240 127 199 214 167 238 227 129 163 220 217 247 203 215 199 148 175 184 189 207 156 168 179 161 150 185 85 282 190 111 73 68 77 107 170 107 88 92 73 67 82 96 95 101 108 105
64 300 107 172 230 136 206 260 209 106 183 198 220 146 148 147 212 239 217 216 225 228 185 188 179 186 238 175 151 148 200 186 142 111 143 264 259 107 116 178 162 153 219 135 131 128 121 111 106 103 100 103 110 112
69 269 299 276 122 95 359 313 338 240 237 219 184 166 170 213 225 239 286 165 261 349 309 323 59 76 320 117 85 63 13 129 102 122 99 235 34 43 18 322 146 132 147 128 121 130 129 117 111 110 109 100 100 114
195 154 167 211 196 118 190 245 212 220 221 232 186 198 210 206 254 129 215 219 178 208 271 305 42 24 327 33 43 113 114 101 101 101 91 37 51 62 55 59 96 111 102 102 107 108 115 118 118 115 112 108 104 100
19 296 80 219 220 196 218 211 232 249 128 161 223 254 272 356 105 221 227 212 306 18 13 24 281 226 332 1 27 0 331 184 155 139 177 145 159 151 81 114 125 107 107 103 99 98 100 106 108 106 105 104 100 92
262 86 102 275 219 225 234 167 192 107 272 299 304 287 250 240 224 113 194 329 128 217 193 186 178 132 177 151 168 102 338 14 36 102 128 137 128 121 151 150 123 115 116 115 111 107 103 102 102 99 100 100 100 101
142 117 243 230 248 224 174 167 165 164 200 226 203 231 268 306 318 272 170 214 245 297 76 127 1 247 144 171 161 138 126 90 114 115 124 106 106 136 143 128 125 118 113 115 119 121 118 110 110 111 108 108 107 109
171 213 248 270 266 145 177 208 222 233 184 195 209 203 264 276 281 264 225 124 103 247 246 171 140 222 214 152 99 80 47 102 120 124 133 127 120 114 110 108 111 115 115 112 113 114 112 113 114 113 110 107 104 106
301 276 273 285 291 291 203 306 235 249 193 203 173 199 199 266 243 232 278 190 191 245 157 145 138 125 112 100 121 125 122 119 139 125 119 112 110 108 104 106 112 113 111 108 107 112 111 113 111 111 111 111 109 107